Sunday, January 20, 2019, 7:23 AM GMT
Back to Local

CWTY, Trois Rivieres

Location: , , Canada Lat: 46.35
Local Time: 7:23 AM GMT ( 7:23 GMT) Lon: -72.517
Time Zone: GMT Elev: 19 ft

Show me the last for .
Show Coded

Time T Td Feel RH Dir Speed Gust Alt SLP Vis Weather Sky Remarks
2019-01-20 07:00 -2 -6 -24 82 20° 12 17 - 30.21 0 None
2019-01-20 06:00 -5 -9 -23 80 10° 10 - - 30.24 0 None
2019-01-20 05:00 -6 -12 -29 76 10° 10 17 - 30.28 0 None
2019-01-20 04:00 -7 -14 -24 73 10° 9 - - 30.32 0 None
2019-01-20 03:00 -8 -15 -24 70 10° 8 - - 30.37 0 None
2019-01-20 02:00 -8 -15 -24 69 10° 8 - - 30.37 0 None
2019-01-20 01:00 -8 -17 -25 63 360° 9 - - 30.40 0 None
2019-01-20 00:00 -8 -20 -22 54 10° 7 - - 30.42 0 None
2019-01-19 23:00 -8 -20 -21 54 10° 6 - - 30.45 0 None
2019-01-19 22:00 -7 -21 -18 47 360° 5 - - 30.47 0 None
2019-01-19 21:00 -9 -23 -20 48 10° 5 - - 30.47 0 None
2019-01-19 20:00 -10 -24 -23 48 340° 6 - - 30.46 0 None
2019-01-19 19:00 -11 -24 -28 52 320° 8 - - 30.45 0 None
2019-01-19 18:00 -12 -26 -28 48 320° 7 - - 30.48 0 None
2019-01-19 17:00 -13 -23 -32 59 340° 9 - - 30.53 0 None
2019-01-19 16:00 -15 -24 -34 64 330° 9 - - 30.55 0 None
2019-01-19 15:00 -17 -25 -34 62 330° 8 - - 30.58 0 None
2019-01-19 14:00 -17 -25 -37 65 330° 9 - - 30.55 0 None
2019-01-19 13:00 -17 -26 -36 62 330° 9 - - 30.52 0 None
2019-01-19 12:00 -16 -24 -34 65 330° 8 - - 30.50 0 None
2019-01-19 11:00 -14 -24 -34 60 320° 10 - - 30.48 0 None
2019-01-19 10:00 -12 -22 -33 61 320° 12 - - 30.46 0 None
2019-01-19 09:00 -10 -22 -29 55 360° 10 - - 30.42 0 None
2019-01-19 08:00 -7 -15 -24 65 350° 10 - - 30.39 0 None

Support USWX by starting your Amazon purchase here.